FDX842 SKBO-TNCA

Flight info

Callsign FDX842
Flight time 1h 17m
Altitude 35000
Route OSUSU4R KOVBU UW1 ENPUT UL450 CAUCA DCT DATOR DATOR2A
Aircraft MD11/H-SDE1E2E3FGHIJ2J3J4J5M1RWXY/LB1D1

Departure

Time 2026-05-04 23:04
Airport El Dorado International Airport (SKBO)

Arrival

Time 2026-05-05 00:21
Airport Queen Beatrix International Airport (TNCA)
Time Latitude Longitude Altitude Speed Heading
2026-05-04 22:21 4.69055 -74.13683 8372 ft 0 kts 37°
2026-05-04 22:47 4.69047 -74.13689 8373 ft 2 kts 37°
2026-05-04 22:47 4.69035 -74.13698 8373 ft 2 kts 37°
2026-05-04 22:48 4.69023 -74.13707 8373 ft 2 kts 37°
2026-05-04 22:48 4.69012 -74.13715 8373 ft 0 kts 37°
2026-05-04 22:48 4.69003 -74.13721 8373 ft 2 kts 21°
2026-05-04 22:48 4.68989 -74.13724 8373 ft 2 kts 355°
2026-05-04 22:49 4.68974 -74.13720 8373 ft 2 kts 332°
2026-05-04 22:49 4.68963 -74.13711 8373 ft 1 kts 310°
2026-05-04 22:49 4.68965 -74.13714 8373 ft 2 kts 310°
2026-05-04 22:49 4.68989 -74.13746 8372 ft 5 kts 306°
2026-05-04 22:50 4.69003 -74.13765 8372 ft 0 kts 306°
2026-05-04 22:50 4.69006 -74.13768 8372 ft 0 kts 307°
2026-05-04 22:52 4.69006 -74.13769 8373 ft 0 kts 307°
2026-05-04 22:52 4.69021 -74.13789 8373 ft 8 kts 307°
2026-05-04 22:53 4.69073 -74.13856 8372 ft 14 kts 307°
2026-05-04 22:53 4.69108 -74.13945 8372 ft 14 kts 277°
2026-05-04 22:53 4.69139 -74.14037 8372 ft 13 kts 305°
2026-05-04 22:53 4.69203 -74.14120 8372 ft 16 kts 308°
2026-05-04 22:54 4.69277 -74.14218 8372 ft 19 kts 307°
2026-05-04 22:54 4.69364 -74.14333 8372 ft 21 kts 307°
2026-05-04 22:54 4.69455 -74.14453 8372 ft 21 kts 307°
2026-05-04 22:54 4.69550 -74.14579 8372 ft 23 kts 307°
2026-05-04 22:55 4.69648 -74.14709 8373 ft 20 kts 307°
2026-05-04 22:55 4.69732 -74.14816 8373 ft 17 kts 307°
2026-05-04 22:55 4.69782 -74.14871 8373 ft 6 kts 346°
2026-05-04 22:55 4.69836 -74.14851 8374 ft 10 kts 34°
2026-05-04 22:56 4.69917 -74.14790 8374 ft 18 kts 38°
2026-05-04 22:56 4.70037 -74.14698 8375 ft 23 kts 37°
2026-05-04 22:56 4.70166 -74.14601 8375 ft 22 kts 37°
2026-05-04 22:56 4.70291 -74.14508 8375 ft 22 kts 37°
2026-05-04 22:57 4.70400 -74.14426 8374 ft 14 kts 38°
2026-05-04 22:57 4.70466 -74.14397 8374 ft 8 kts 337°
2026-05-04 22:57 4.70513 -74.14445 8374 ft 12 kts 307°
2026-05-04 22:57 4.70584 -74.14538 8374 ft 20 kts 307°
2026-05-04 22:58 4.70686 -74.14674 8373 ft 26 kts 307°
2026-05-04 22:58 4.70799 -74.14824 8372 ft 26 kts 307°
2026-05-04 22:58 4.70909 -74.14968 8371 ft 24 kts 307°
2026-05-04 22:58 4.71007 -74.15097 8370 ft 22 kts 307°
2026-05-04 22:59 4.71078 -74.15192 8368 ft 12 kts 311°
2026-05-04 22:59 4.71157 -74.15220 8367 ft 11 kts 355°
2026-05-04 22:59 4.71193 -74.15223 8367 ft 0 kts 355°
2026-05-04 23:02 4.71196 -74.15223 8367 ft 1 kts 355°
2026-05-04 23:02 4.71228 -74.15225 8366 ft 8 kts 355°
2026-05-04 23:02 4.71293 -74.15222 8366 ft 9 kts 23°
2026-05-04 23:02 4.71316 -74.15180 8366 ft 5 kts 108°
2026-05-04 23:03 4.71296 -74.15149 8367 ft 7 kts 127°
2026-05-04 23:03 4.71227 -74.15059 8369 ft 34 kts 127°
2026-05-04 23:03 4.70935 -74.14671 8372 ft 102 kts 127°
2026-05-04 23:03 4.70383 -74.13944 8374 ft 160 kts 127°
2026-05-04 23:04 4.69616 -74.12923 8396 ft 201 kts 125°
2026-05-04 23:04 4.68768 -74.11798 8798 ft 204 kts 127°
2026-05-04 23:04 4.67895 -74.10634 9248 ft 210 kts 125°
2026-05-04 23:04 4.67164 -74.09399 9776 ft 210 kts 102°
2026-05-04 23:05 4.67177 -74.07976 10306 ft 208 kts 69°
2026-05-04 23:05 4.68019 -74.06754 10553 ft 223 kts 36°
2026-05-04 23:05 4.69489 -74.06166 10903 ft 236 kts
2026-05-04 23:05 4.71140 -74.06393 11329 ft 248 kts 342°
2026-05-04 23:06 4.72751 -74.07122 11808 ft 256 kts 342°
2026-05-04 23:06 4.74477 -74.07408 12455 ft 251 kts
2026-05-04 23:06 4.76180 -74.07150 13085 ft 252 kts 16°
2026-05-04 23:06 4.77959 -74.06677 13239 ft 278 kts 19°
2026-05-04 23:07 4.79866 -74.06084 13650 ft 294 kts 21°
2026-05-04 23:07 4.81859 -74.05424 14283 ft 304 kts 21°
2026-05-04 23:07 4.83869 -74.04746 14982 ft 311 kts 22°
2026-05-04 23:07 4.85954 -74.04044 15749 ft 315 kts 22°
2026-05-04 23:08 4.88042 -74.03334 16497 ft 319 kts 21°
2026-05-04 23:08 4.90126 -74.02627 17215 ft 322 kts 21°
2026-05-04 23:08 4.92267 -74.01901 17930 ft 325 kts 21°
2026-05-04 23:08 4.94414 -74.01173 18618 ft 328 kts 21°
2026-05-04 23:09 4.96605 -74.00430 19234 ft 334 kts 21°
2026-05-04 23:09 4.98872 -73.99661 19350 ft 358 kts 21°
2026-05-04 23:09 5.01314 -73.98834 19394 ft 383 kts 20°
2026-05-04 23:09 5.03978 -73.98072 19471 ft 407 kts 16°
2026-05-04 23:10 5.06813 -73.97382 19625 ft 428 kts 15°
2026-05-04 23:10 5.09750 -73.96669 20102 ft 437 kts 15°
2026-05-04 23:10 5.12763 -73.95934 20687 ft 444 kts 16°
2026-05-04 23:10 5.15775 -73.95192 21304 ft 448 kts 16°
2026-05-04 23:11 5.18821 -73.94437 21914 ft 452 kts 16°
2026-05-04 23:11 5.21889 -73.93672 22501 ft 456 kts 16°
2026-05-04 23:11 5.24984 -73.92899 23076 ft 461 kts 16°
2026-05-04 23:11 5.28125 -73.92117 23641 ft 465 kts 15°
2026-05-04 23:12 5.31275 -73.91332 24230 ft 469 kts 15°
2026-05-04 23:12 5.34474 -73.90535 24779 ft 474 kts 15°
2026-05-04 23:12 5.37718 -73.89726 25320 ft 479 kts 15°
2026-05-04 23:12 5.40949 -73.88921 25850 ft 483 kts 15°
2026-05-04 23:13 5.44239 -73.88100 26370 ft 488 kts 15°
2026-05-04 23:13 5.47534 -73.87280 26977 ft 490 kts 15°
2026-05-04 23:13 5.50871 -73.86443 27510 ft 493 kts 16°
2026-05-04 23:13 5.54122 -73.85352 27933 ft 497 kts 24°
2026-05-04 23:14 5.57216 -73.83791 28396 ft 499 kts 31°
2026-05-04 23:14 5.60234 -73.82034 28947 ft 502 kts 31°
2026-05-04 23:14 5.63259 -73.80267 29558 ft 502 kts 31°
2026-05-04 23:14 5.66295 -73.78513 30352 ft 499 kts 31°
2026-05-04 23:15 5.69281 -73.76804 31114 ft 496 kts 31°
2026-05-04 23:15 5.72295 -73.75087 31850 ft 494 kts 31°
2026-05-04 23:15 5.75263 -73.73402 32516 ft 492 kts 31°
2026-05-04 23:15 5.78258 -73.71705 33206 ft 489 kts 31°
2026-05-04 23:16 5.81203 -73.70036 33877 ft 487 kts 31°
2026-05-04 23:16 5.84192 -73.68342 34495 ft 485 kts 30°
2026-05-04 23:16 5.87172 -73.66653 35097 ft 482 kts 30°
2026-05-04 23:16 5.90171 -73.64956 35673 ft 480 kts 30°
2026-05-04 23:17 5.93064 -73.63317 36176 ft 478 kts 30°
2026-05-04 23:17 5.95992 -73.61661 36660 ft 475 kts 30°
2026-05-04 23:17 5.98866 -73.60031 37097 ft 473 kts 30°
2026-05-04 23:17 6.01715 -73.58414 37288 ft 476 kts 30°
2026-05-04 23:18 6.07487 -73.55135 37330 ft 475 kts 30°
2026-05-04 23:18 6.13261 -73.51860 37314 ft 473 kts 30°
2026-05-04 23:19 6.19005 -73.48599 37344 ft 473 kts 30°
2026-05-04 23:19 6.24732 -73.45351 37329 ft 474 kts 30°
2026-05-04 23:20 6.30483 -73.42088 37321 ft 474 kts 30°
2026-05-04 23:20 6.36277 -73.38797 37308 ft 475 kts 30°
2026-05-04 23:21 6.42031 -73.35536 37292 ft 477 kts 29°
2026-05-04 23:21 6.47870 -73.32217 37271 ft 484 kts 30°
2026-05-04 23:22 6.53777 -73.28870 37218 ft 487 kts 30°
2026-05-04 23:22 6.59657 -73.25532 37208 ft 485 kts 30°
2026-05-04 23:23 6.65559 -73.22183 37223 ft 486 kts 30°
2026-05-04 23:23 6.71450 -73.18838 37212 ft 486 kts 30°
2026-05-04 23:24 6.77364 -73.15475 37203 ft 486 kts 30°
2026-05-04 23:24 6.83227 -73.12141 37232 ft 485 kts 30°
2026-05-04 23:25 6.89116 -73.08793 37246 ft 485 kts 30°
2026-05-04 23:25 6.95077 -73.05512 37232 ft 486 kts 29°
2026-05-04 23:26 7.01001 -73.02259 37223 ft 486 kts 29°
2026-05-04 23:26 7.06920 -72.98999 37238 ft 485 kts 29°
2026-05-04 23:27 7.12870 -72.95722 37280 ft 485 kts 29°
2026-05-04 23:27 7.18800 -72.92457 37330 ft 484 kts 29°
2026-05-04 23:28 7.24705 -72.89206 37374 ft 484 kts 29°
2026-05-04 23:28 7.30617 -72.85951 37405 ft 485 kts 29°
2026-05-04 23:29 7.36554 -72.82682 37413 ft 485 kts 29°
2026-05-04 23:29 7.42494 -72.79412 37366 ft 485 kts 29°
2026-05-04 23:30 7.48416 -72.76150 37316 ft 485 kts 28°
2026-05-04 23:30 7.54339 -72.72889 37287 ft 485 kts 28°
2026-05-04 23:31 7.60229 -72.69646 37274 ft 484 kts 28°
2026-05-04 23:31 7.66172 -72.66369 37259 ft 484 kts 28°
2026-05-04 23:32 7.72107 -72.63094 37205 ft 484 kts 29°
2026-05-04 23:32 7.78002 -72.59838 37172 ft 483 kts 29°
2026-05-04 23:33 7.83903 -72.56579 37125 ft 484 kts 29°
2026-05-04 23:33 7.89840 -72.53299 37100 ft 484 kts 28°
2026-05-04 23:34 7.95763 -72.50060 37061 ft 485 kts 27°
2026-05-04 23:34 8.01809 -72.46996 37091 ft 485 kts 27°
2026-05-04 23:35 8.07810 -72.43943 37092 ft 484 kts 27°
2026-05-04 23:35 8.13851 -72.40850 37087 ft 485 kts 27°
2026-05-04 23:36 8.19868 -72.37768 37053 ft 484 kts 27°
2026-05-04 23:36 8.25827 -72.34547 37029 ft 484 kts 30°
2026-05-04 23:37 8.31693 -72.31222 37008 ft 483 kts 30°
2026-05-04 23:37 8.37559 -72.27923 36983 ft 482 kts 30°
2026-05-04 23:38 8.43432 -72.24631 36960 ft 482 kts 30°
2026-05-04 23:38 8.49298 -72.21345 36973 ft 483 kts 30°
2026-05-04 23:39 8.55174 -72.18054 36955 ft 482 kts 30°
2026-05-04 23:39 8.61065 -72.14758 36938 ft 481 kts 30°
2026-05-04 23:40 8.66925 -72.11478 36898 ft 480 kts 30°
2026-05-04 23:40 8.72773 -72.08205 36881 ft 479 kts 30°
2026-05-04 23:41 8.78615 -72.04936 36885 ft 479 kts 30°
2026-05-04 23:41 8.84419 -72.01686 36886 ft 479 kts 30°
2026-05-04 23:42 8.90276 -71.98408 36860 ft 479 kts 29°
2026-05-04 23:42 8.96123 -71.95136 36859 ft 480 kts 30°
2026-05-04 23:43 9.02002 -71.91922 36864 ft 479 kts 27°
2026-05-04 23:43 9.07942 -71.88844 36871 ft 477 kts 27°
2026-05-04 23:44 9.13885 -71.85738 36858 ft 477 kts 28°
2026-05-04 23:44 9.19793 -71.82638 36865 ft 478 kts 28°
2026-05-04 23:45 9.25702 -71.79539 36889 ft 479 kts 28°
2026-05-04 23:45 9.31621 -71.76436 36887 ft 479 kts 28°
2026-05-04 23:46 9.37567 -71.73319 36877 ft 479 kts 28°
2026-05-04 23:46 9.43459 -71.70229 36876 ft 478 kts 28°
2026-05-04 23:47 9.49412 -71.67107 36880 ft 477 kts 27°
2026-05-04 23:47 9.55306 -71.64017 36886 ft 477 kts 27°
2026-05-04 23:48 9.61203 -71.60926 36882 ft 478 kts 27°
2026-05-04 23:48 9.67138 -71.57816 36862 ft 479 kts 27°
2026-05-04 23:49 9.73091 -71.54694 36869 ft 479 kts 27°
2026-05-04 23:49 9.78997 -71.51586 36861 ft 479 kts 27°
2026-05-04 23:50 9.84915 -71.48470 36847 ft 478 kts 27°
2026-05-04 23:50 9.90822 -71.45362 36858 ft 478 kts 27°
2026-05-04 23:51 9.96732 -71.42252 36852 ft 478 kts 27°
2026-05-04 23:51 10.02664 -71.39130 36837 ft 477 kts 27°
2026-05-04 23:52 10.08547 -71.36034 36837 ft 478 kts 27°
2026-05-04 23:52 10.14488 -71.32894 36835 ft 478 kts 27°
2026-05-04 23:53 10.20388 -71.29776 36840 ft 478 kts 27°
2026-05-04 23:53 10.26306 -71.26650 36843 ft 477 kts 27°
2026-05-04 23:54 10.32186 -71.23543 36850 ft 476 kts 27°
2026-05-04 23:54 10.38086 -71.20430 36857 ft 476 kts 27°
2026-05-04 23:55 10.43968 -71.17324 36863 ft 477 kts 27°
2026-05-04 23:56 10.52792 -71.12659 36869 ft 477 kts 27°
2026-05-04 23:56 10.58689 -71.09541 36883 ft 476 kts 27°
2026-05-04 23:57 10.64568 -71.06432 36880 ft 475 kts 27°
2026-05-04 23:57 10.70388 -71.03202 36883 ft 475 kts 30°
2026-05-04 23:58 10.76049 -70.99788 36874 ft 476 kts 31°
2026-05-04 23:58 10.81770 -70.96291 36874 ft 476 kts 31°
2026-05-04 23:59 10.87460 -70.92814 36871 ft 476 kts 31°
2026-05-04 23:59 10.93112 -70.89361 36863 ft 475 kts 31°
2026-05-05 00:00 10.98785 -70.85894 36537 ft 472 kts 31°
2026-05-05 00:00 11.04408 -70.82458 36099 ft 470 kts 31°
2026-05-05 00:00 11.07231 -70.80732 35555 ft 471 kts 31°
2026-05-05 00:01 11.10023 -70.79026 34831 ft 473 kts 30°
2026-05-05 00:01 11.12865 -70.77290 34061 ft 474 kts 30°
2026-05-05 00:01 11.15682 -70.75568 33277 ft 478 kts 30°
2026-05-05 00:01 11.18566 -70.73808 32467 ft 481 kts 30°
2026-05-05 00:02 11.21446 -70.72050 31701 ft 485 kts 30°
2026-05-05 00:02 11.24340 -70.70283 30921 ft 487 kts 30°
2026-05-05 00:02 11.27241 -70.68511 30155 ft 488 kts 30°
2026-05-05 00:02 11.30131 -70.66748 29408 ft 486 kts 30°
2026-05-05 00:03 11.33003 -70.64992 28606 ft 476 kts 29°
2026-05-05 00:03 11.35831 -70.63265 27856 ft 468 kts 29°
2026-05-05 00:03 11.38621 -70.61563 27013 ft 460 kts 29°
2026-05-05 00:03 11.41337 -70.59906 26485 ft 453 kts 29°
2026-05-05 00:04 11.44033 -70.58282 25792 ft 451 kts 28°
2026-05-05 00:04 11.46772 -70.56822 24962 ft 444 kts 24°
2026-05-05 00:04 11.49596 -70.55567 24196 ft 434 kts 19°
2026-05-05 00:04 11.52422 -70.54584 23422 ft 426 kts 16°
2026-05-05 00:05 11.55237 -70.53696 22696 ft 418 kts 16°
2026-05-05 00:05 11.57961 -70.52853 22046 ft 412 kts 16°
2026-05-05 00:05 11.60708 -70.52003 21458 ft 411 kts 16°
2026-05-05 00:05 11.63447 -70.51152 20827 ft 411 kts 17°
2026-05-05 00:06 11.66160 -70.50308 20286 ft 406 kts 17°
2026-05-05 00:06 11.68872 -70.49466 19590 ft 401 kts 17°
2026-05-05 00:06 11.71532 -70.48640 18878 ft 397 kts 18°
2026-05-05 00:06 11.74145 -70.47829 18246 ft 393 kts 18°
2026-05-05 00:07 11.76748 -70.47018 17661 ft 390 kts 19°
2026-05-05 00:07 11.79343 -70.46211 17105 ft 390 kts 19°
2026-05-05 00:07 11.81944 -70.45400 16511 ft 391 kts 19°
2026-05-05 00:07 11.84530 -70.44594 15919 ft 388 kts 19°
2026-05-05 00:08 11.87108 -70.43790 15327 ft 384 kts 19°
2026-05-05 00:08 11.89669 -70.42995 14713 ft 381 kts 19°
2026-05-05 00:08 11.92203 -70.42208 14106 ft 378 kts 19°
2026-05-05 00:08 11.94701 -70.41430 13519 ft 375 kts 19°
2026-05-05 00:09 11.97187 -70.40657 12937 ft 372 kts 19°
2026-05-05 00:09 11.99661 -70.39888 12359 ft 369 kts 19°
2026-05-05 00:09 12.02126 -70.39121 11783 ft 366 kts 19°
2026-05-05 00:09 12.04534 -70.38372 11323 ft 360 kts 19°
2026-05-05 00:10 12.06909 -70.37636 10939 ft 352 kts 19°
2026-05-05 00:10 12.09205 -70.36924 10600 ft 339 kts 19°
2026-05-05 00:10 12.11447 -70.36228 10321 ft 325 kts 19°
2026-05-05 00:10 12.13557 -70.35573 10097 ft 313 kts 19°
2026-05-05 00:11 12.15642 -70.34924 9925 ft 304 kts 20°
2026-05-05 00:11 12.17640 -70.34302 9691 ft 299 kts 20°
2026-05-05 00:11 12.19614 -70.33686 9368 ft 293 kts 20°
2026-05-05 00:11 12.21571 -70.33078 8840 ft 290 kts 20°
2026-05-05 00:12 12.23496 -70.32480 8428 ft 287 kts 20°
2026-05-05 00:12 12.25413 -70.31883 7974 ft 287 kts 20°
2026-05-05 00:12 12.27304 -70.31294 7624 ft 285 kts 19°
2026-05-05 00:12 12.29176 -70.30713 7227 ft 278 kts 20°
2026-05-05 00:13 12.31005 -70.30146 6858 ft 271 kts 20°
2026-05-05 00:13 12.32807 -70.29584 6453 ft 267 kts 20°
2026-05-05 00:13 12.34571 -70.29036 6072 ft 262 kts 20°
2026-05-05 00:13 12.36298 -70.28501 5864 ft 249 kts 20°
2026-05-05 00:14 12.37905 -70.28002 5844 ft 238 kts 21°
2026-05-05 00:14 12.39512 -70.27499 5764 ft 240 kts 21°
2026-05-05 00:14 12.41075 -70.26917 5685 ft 239 kts 28°
2026-05-05 00:14 12.42549 -70.26109 5356 ft 237 kts 36°
2026-05-05 00:15 12.43907 -70.25227 5195 ft 224 kts 37°
2026-05-05 00:15 12.45262 -70.24445 5174 ft 223 kts 30°
2026-05-05 00:15 12.46730 -70.23897 4864 ft 228 kts 19°
2026-05-05 00:15 12.48278 -70.23527 4513 ft 224 kts 18°
2026-05-05 00:16 12.49794 -70.23186 4052 ft 223 kts 18°
2026-05-05 00:16 12.51297 -70.22835 3628 ft 219 kts 19°
2026-05-05 00:16 12.52773 -70.22476 3234 ft 215 kts 21°
2026-05-05 00:16 12.54032 -70.21816 3065 ft 199 kts 52°
2026-05-05 00:17 12.54627 -70.20589 2978 ft 190 kts 87°
2026-05-05 00:17 12.54423 -70.19263 2897 ft 191 kts 107°
2026-05-05 00:17 12.54019 -70.17995 2792 ft 182 kts 103°
2026-05-05 00:17 12.53737 -70.16773 2597 ft 174 kts 101°
2026-05-05 00:18 12.53472 -70.15593 2428 ft 166 kts 101°
2026-05-05 00:18 12.53213 -70.14470 2213 ft 158 kts 101°
2026-05-05 00:18 12.52963 -70.13398 1992 ft 150 kts 101°
2026-05-05 00:18 12.52726 -70.12400 1827 ft 140 kts 101°
2026-05-05 00:19 12.52501 -70.11454 1668 ft 130 kts 100°
2026-05-05 00:19 12.52290 -70.10573 1508 ft 127 kts 101°
2026-05-05 00:19 12.52073 -70.09641 1350 ft 141 kts 101°
2026-05-05 00:19 12.51831 -70.08659 1102 ft 140 kts 101°
2026-05-05 00:20 12.51583 -70.07695 985 ft 144 kts 102°
2026-05-05 00:20 12.51341 -70.06677 794 ft 149 kts 100°
2026-05-05 00:20 12.51104 -70.05634 578 ft 149 kts 101°
2026-05-05 00:20 12.50874 -70.04630 388 ft 146 kts 101°
2026-05-05 00:21 12.50625 -70.03610 202 ft 147 kts 100°
2026-05-05 00:21 12.50389 -70.02583 48 ft 151 kts 101°
2026-05-05 00:21 12.50168 -70.01637 49 ft 106 kts 104°
2026-05-05 00:21 12.50054 -70.01170 62 ft 47 kts 104°
2026-05-05 00:22 12.49991 -70.00912 67 ft 29 kts 103°
2026-05-05 00:22 12.49956 -70.00758 70 ft 10 kts 97°
2026-05-05 00:22 12.49985 -70.00713 70 ft 6 kts 21°
2026-05-05 00:22 12.50027 -70.00703 71 ft 6 kts 13°
2026-05-05 00:23 12.50094 -70.00686 72 ft 11 kts 14°
2026-05-05 00:23 12.50159 -70.00665 73 ft 7 kts 33°
2026-05-05 00:23 12.50174 -70.00614 73 ft 8 kts 89°
2026-05-05 00:23 12.50196 -70.00584 73 ft 4 kts 22°
2026-05-05 00:24 12.50219 -70.00577 74 ft 2 kts 14°
2026-05-05 00:24 12.50220 -70.00577 74 ft 0 kts 14°